| time (UTC) | temp F | wind direction | speed MPH | gust MPH | rain 1hr in | rain 24hr in | rain mn in | humidity % | barometer mb |
| 20260504050517 | 48 | 270 | 1.0 | 2.0 | 0.00 | 0.00 | 0.00 | 58 | 1012.0 |
| 20260504045517 | 48 | 248 | 1.0 | 2.0 | 0.00 | 0.00 | 0.00 | 57 | 1012.0 |
| 20260504044516 | 49 | 248 | 1.0 | 2.0 | 0.00 | 0.00 | 0.00 | 57 | 1012.0 |
| 20260504043516 | 49 | 270 | 1.0 | 3.0 | 0.00 | 0.00 | 0.00 | 57 | 1012.0 |
| 20260504042516 | 49 | 248 | 1.0 | 3.0 | 0.00 | 0.00 | 0.00 | 57 | 1012.0 |
| 20260504041516 | 49 | 248 | 1.0 | 2.0 | 0.00 | 0.00 | 0.00 | 57 | 1011.8 |
| 20260504040516 | 49 | 248 | 1.0 | 2.0 | 0.00 | 0.00 | 0.00 | 57 | 1011.6 |
| 20260504035517 | 49 | 248 | 1.0 | 2.0 | 0.00 | 0.00 | 0.00 | 57 | 1011.5 |
| 20260504034517 | 49 | 248 | 1.0 | 2.0 | 0.00 | 0.00 | 0.00 | 57 | 1011.4 |
| 20260504033517 | 49 | 248 | 1.0 | 2.0 | 0.00 | 0.00 | 0.00 | 57 | 1011.4 |
| 20260504032537 | 48 | 0.0 | 1.0 | 0.00 | 0.00 | 0.00 | 58 | 1011.3 | |
| 20260504031517 | 46 | 0.0 | 0.0 | 0.00 | 0.00 | 0.00 | 60 | 1011.2 | |
| 20260504030517 | 47 | 0.0 | 0.0 | 0.00 | 0.00 | 0.00 | 60 | 1011.1 | |
| 20260504025517 | 48 | 0.0 | 0.0 | 0.00 | 0.00 | 0.00 | 58 | 1011.2 | |
| 20260504024517 | 49 | 0.0 | 0.0 | 0.00 | 0.00 | 0.00 | 56 | 1011.2 | |
| 20260504023537 | 51 | 0.0 | 1.0 | 0.00 | 0.00 | 0.00 | 51 | 1011.3 | |
| 20260504022517 | 52 | 248 | 1.0 | 1.0 | 0.00 | 0.00 | 0.00 | 48 | 1011.4 |
| 20260504021517 | 52 | 0.0 | 1.0 | 0.00 | 0.00 | 0.00 | 48 | 1011.1 | |
| 20260504020517 | 52 | 248 | 1.0 | 2.0 | 0.00 | 0.00 | 0.00 | 48 | 1011.1 |
| 20260504015517 | 53 | 248 | 1.0 | 2.0 | 0.00 | 0.00 | 0.00 | 47 | 1011.2 |
| 20260504014517 | 53 | 0.0 | 1.0 | 0.00 | 0.00 | 0.00 | 46 | 1011.1 | |
| 20260504013517 | 53 | 248 | 1.0 | 2.0 | 0.00 | 0.00 | 0.00 | 46 | 1011.0 |
| 20260504012517 | 53 | 270 | 2.0 | 3.0 | 0.00 | 0.00 | 0.00 | 46 | 1010.9 |
| 20260504011517 | 53 | 270 | 1.0 | 3.0 | 0.00 | 0.00 | 0.00 | 46 | 1010.9 |
| 20260504010517 | 54 | 270 | 1.0 | 2.0 | 0.00 | 0.00 | 0.00 | 45 | 1010.8 |
| 20260504005537 | 55 | 270 | 1.0 | 3.0 | 0.00 | 0.00 | 0.00 | 43 | 1010.6 |
| 20260504004517 | 55 | 248 | 2.0 | 3.0 | 0.00 | 0.00 | 0.00 | 43 | 1010.6 |
| 20260504003517 | 56 | 270 | 2.0 | 3.0 | 0.00 | 0.00 | 0.00 | 42 | 1010.4 |
| 20260504002517 | 56 | 270 | 2.0 | 3.0 | 0.00 | 0.00 | 0.00 | 42 | 1010.3 |
| 20260504001517 | 57 | 270 | 2.0 | 4.0 | 0.00 | 0.00 | 0.00 | 40 | 1010.2 |
| 20260504000537 | 57 | 270 | 3.0 | 5.0 | 0.00 | 0.00 | 0.00 | 40 | 1010.1 |
| 20260503235516 | 58 | 270 | 3.0 | 5.0 | 0.00 | 0.00 | 0.00 | 39 | 1010.0 |
| 20260503234517 | 58 | 270 | 3.0 | 6.0 | 0.00 | 0.00 | 0.00 | 37 | 1009.8 |
| 20260503233517 | 59 | 270 | 3.0 | 5.0 | 0.00 | 0.00 | 0.00 | 37 | 1009.7 |
| 20260503232537 | 59 | 270 | 4.0 | 8.0 | 0.00 | 0.00 | 0.00 | 36 | 1009.6 |
| 20260503231517 | 59 | 270 | 6.0 | 10.0 | 0.00 | 0.00 | 0.00 | 35 | 1009.7 |
| 20260503230517 | 60 | 270 | 3.0 | 5.0 | 0.00 | 0.00 | 0.00 | 36 | 1009.6 |
| 20260503225517 | 60 | 270 | 4.0 | 9.0 | 0.00 | 0.00 | 0.00 | 35 | 1009.6 |
| 20260503224516 | 59 | 270 | 4.0 | 9.0 | 0.00 | 0.00 | 0.00 | 36 | 1009.5 |
| 20260503223517 | 59 | 270 | 4.0 | 8.0 | 0.00 | 0.00 | 0.00 | 36 | 1009.6 |
| 20260503222517 | 60 | 270 | 4.0 | 10.0 | 0.00 | 0.00 | 0.00 | 34 | 1009.6 |
| 20260503221516 | 61 | 270 | 7.0 | 14.0 | 0.00 | 0.00 | 0.00 | 33 | 1009.6 |
| 20260503220516 | 60 | 270 | 3.0 | 7.0 | 0.00 | 0.00 | 0.00 | 35 | 1009.6 |
| 20260503215516 | 60 | 270 | 7.0 | 11.0 | 0.00 | 0.00 | 0.00 | 33 | 1009.6 |
| 20260503214516 | 62 | 270 | 5.0 | 11.0 | 0.00 | 0.00 | 0.00 | 31 | 1009.4 |
| 20260503213516 | 62 | 270 | 7.0 | 17.0 | 0.00 | 0.00 | 0.00 | 32 | 1009.4 |
| 20260503212516 | 62 | 270 | 7.0 | 10.0 | 0.00 | 0.00 | 0.00 | 31 | 1009.4 |
| 20260503211516 | 61 | 270 | 3.0 | 8.0 | 0.00 | 0.00 | 0.00 | 32 | 1009.3 |
| 20260503210516 | 61 | 270 | 6.0 | 12.0 | 0.00 | 0.00 | 0.00 | 31 | 1009.4 |
| 20260503205516 | 61 | 270 | 8.0 | 14.0 | 0.00 | 0.00 | 0.00 | 34 | 1009.4 |
| 20260503204536 | 61 | 270 | 7.0 | 16.0 | 0.00 | 0.00 | 0.00 | 32 | 1009.4 |
| 20260503203516 | 61 | 270 | 7.0 | 16.0 | 0.00 | 0.00 | 0.00 | 32 | 1009.6 |
| 20260503202516 | 61 | 270 | 8.0 | 16.0 | 0.00 | 0.00 | 0.00 | 34 | 1009.5 |
| 20260503201516 | 61 | 270 | 5.0 | 12.0 | 0.00 | 0.00 | 0.00 | 33 | 1009.7 |
| 20260503200516 | 60 | 270 | 8.0 | 14.0 | 0.00 | 0.00 | 0.00 | 32 | 1009.8 |
| 20260503195516 | 60 | 270 | 8.0 | 14.0 | 0.00 | 0.00 | 0.00 | 33 | 1010.0 |
| 20260503194516 | 60 | 45 | 4.0 | 9.0 | 0.00 | 0.00 | 0.00 | 34 | 1010.0 |
| 20260503193516 | 60 | 270 | 8.0 | 16.0 | 0.00 | 0.00 | 0.00 | 34 | 1010.2 |
| 20260503192516 | 59 | 270 | 5.0 | 13.0 | 0.00 | 0.00 | 0.00 | 35 | 1010.3 |
| 20260503191516 | 60 | 270 | 7.0 | 17.0 | 0.00 | 0.00 | 0.00 | 34 | 1010.4 |
| 20260503190516 | 60 | 248 | 6.0 | 12.0 | 0.00 | 0.00 | 0.00 | 36 | 1010.4 |
| 20260503185516 | 59 | 270 | 7.0 | 17.0 | 0.00 | 0.00 | 0.00 | 37 | 1010.4 |
| 20260503184516 | 59 | 270 | 9.0 | 17.0 | 0.00 | 0.00 | 0.00 | 33 | 1010.6 |
| 20260503183516 | 58 | 270 | 5.0 | 13.0 | 0.00 | 0.00 | 0.00 | 36 | 1010.6 |
| 20260503182516 | 58 | 270 | 5.0 | 16.0 | 0.00 | 0.00 | 0.00 | 37 | 1010.8 |
| 20260503181516 | 57 | 270 | 4.0 | 9.0 | 0.00 | 0.00 | 0.00 | 37 | 1010.8 |
| 20260503180516 | 57 | 270 | 5.0 | 14.0 | 0.00 | 0.00 | 0.00 | 37 | 1010.9 |
| 20260503175516 | 57 | 270 | 7.0 | 15.0 | 0.00 | 0.00 | 0.00 | 36 | 1010.7 |
| 20260503174536 | 56 | 68 | 3.0 | 9.0 | 0.00 | 0.00 | 0.00 | 41 | 1010.8 |
| 20260503173536 | 57 | 270 | 6.0 | 20.0 | 0.00 | 0.00 | 0.00 | 39 | 1011.0 |
| 20260503172516 | 56 | 45 | 4.0 | 11.0 | 0.00 | 0.00 | 0.00 | 37 | 1010.9 |
| 20260503171516 | 55 | 270 | 8.0 | 16.0 | 0.00 | 0.00 | 0.00 | 39 | 1011.0 |
| 20260503170516 | 55 | 270 | 6.0 | 14.0 | 0.00 | 0.00 | 0.00 | 39 | 1011.2 |
| 20260503150515 | 51 | 270 | 6.0 | 11.0 | 0.00 | 0.00 | 0.00 | 48 | 1012.1 |
| 20260503130515 | 47 | 23 | 2.0 | 8.0 | 0.00 | 0.00 | 0.00 | 58 | 1012.1 |
| 20260503110515 | 44 | 248 | 2.0 | 6.0 | 0.00 | 0.00 | 0.00 | 64 | 1011.8 |
| 20260503081517 | 45 | 23 | 2.0 | 6.0 | 0.00 | 0.00 | 0.00 | 60 | 1010.1 |
| 20260503080517 | 46 | 0 | 4.0 | 8.0 | 0.00 | 0.00 | 0.00 | 58 | 1010.0 |
| 20260503072557 | 46 | 23 | 3.0 | 8.0 | 0.00 | 0.02 | 0.00 | 56 | 1009.8 |
| 20260503071517 | 47 | 23 | 1.0 | 4.0 | 0.00 | 0.02 | 0.00 | 57 | 1009.8 |
| 20260503070537 | 47 | 23 | 3.0 | 7.0 | 0.00 | 0.02 | 0.00 | 55 | 1009.7 |